This demonstration page uses our WeatherBlox Daily Observations layout. Learn more.

Hourly Observations for January 11, 2020

Temp ( °F °C ) Dew Point ( °F °C ) Humidity (%) Winds ( mph kmh ) Pressure ( in mb ) Visibility ( mi km ) Precip ( " mm )
12:15 am 00:15 Clear 11 -11.8 7 -13.7 86 86 NNW 17 28 30.39 1029 10 16.0934 0 0
12:35 am 00:35 Clear 10 -12 7 -13.7 87 87 NNW 15 24 30.39 1029 10 16.0934 0 0
12:55 am 00:55 Clear 10 -12 7 -13.7 87 87 N 15 24 30.39 1029 10 16.0934 0 0
1:15 am 01:15 Clear 10 -12.2 7 -13.7 89 89 N 13 20 30.38 1029 10 16.0934 0 0
1:35 am 01:35 Clear 10 -12.4 7 -13.7 90 90 N 15 24 30.38 1029 10 16.0934 0 0
1:55 am 01:55 Clear 9 -12.6 7 -13.8 91 91 N 9 15 30.37 1029 10 16.0934 0 0
2:15 am 02:15 Clear 9 -12.8 7 -14 91 91 N 12 19 30.37 1029 10 16.0934 0 0
2:35 am 02:35 Clear 9 -13 7 -14 92 92 N 9 15 30.39 1029 10 16.0934 0 0
2:55 am 02:55 Clear 9 -13 7 -14.1 92 92 NNE 9 15 30.4 1029 10 16.0934 0 0
3:15 am 03:15 Clear 8 -13.2 6 -14.3 92 92 N 6 9 30.43 1030 10 16.0934 0 0
3:35 am 03:35 Clear 8 -13.4 6 -14.5 92 92 N 7 11 30.41 1030 10 16.0934 0 0
3:55 am 03:55 Clear 8 -13.5 5 -14.8 90 90 N 6 9 30.39 1029 10 16.0934 0 0
4:15 am 04:15 Clear 8 -13.6 5 -15.1 89 89 NNW 8 13 30.38 1029 10 16.0934 0 0
4:35 am 04:35 Clear 8 -13.6 4 -15.3 87 87 N 10 17 30.38 1029 10 16.0934 0 0
4:55 am 04:55 Clear 7 -13.7 4 -15.5 86 86 NNW 9 15 30.37 1029 10 16.0934 0 0
5:15 am 05:15 Clear 7 -13.8 4 -15.7 86 86 NNW 8 13 30.38 1029 10 16.0934 0 0
5:35 am 05:35 Clear 7 -14 3 -16 85 85 NNW 7 11 30.38 1029 10 16.0934 0 0
5:55 am 05:55 Clear 7 -14.1 3 -16.1 85 85 NNW 7 11 30.38 1029 10 16.0934 0 0
6:15 am 06:15 Clear 6 -14.2 3 -16.3 84 84 N 6 9 30.39 1029 10 16.0934 0 0
6:35 am 06:35 Clear 6 -14.2 3 -16.2 85 85 N 5 7 30.4 1029 10 16.0934 0 0
6:55 am 06:55 Clear 6 -14.7 2 -16.6 86 86 N 7 11 30.39 1029 10 16.0934 0 0
7:15 am 07:15 Clear 6 -14.7 2 -16.5 86 86 NNW 7 11 30.4 1030 10 16.0934 0 0
7:35 am 07:35 Clear 5 -14.8 2 -16.8 85 85 Calm 30.39 1029 10 16.0934 0 0
7:55 am 07:55 Clear 5 -14.9 2 -16.7 86 86 WNW 6 9 30.39 1029 10 16.0934 0 0
8:15 am 08:15 Sunny 5 -14.8 2 -16.5 87 87 WNW 3 6 30.39 1029 10 16.0934 0 0
8:35 am 08:35 Sunny 6 -14.2 4 -15.7 89 89 NW 7 11 30.37 1028 10 16.0934 0 0
8:55 am 08:55 Sunny 8 -13.5 5 -15 89 89 NW 8 13 30.36 1028 10 16.0934 0 0
9:15 am 09:15 Sunny 9 -12.6 4 -15.4 80 80 NNW 10 17 30.35 1028 10 16.0934 0 0
9:35 am 09:35 Sunny 10 -12 4 -15.5 75 75 NNW 6 9 30.35 1028 10 16.0934 0 0
9:55 am 09:55 Sunny 12 -11.3 5 -15.2 73 73 NNW 6 9 30.34 1027 10 16.0934 0 0
10:15 am 10:15 Sunny 13 -10.6 5 -15.1 70 70 NNW 5 7 30.32 1027 10 16.0934 0 0
10:35 am 10:35 Sunny 14 -9.9 6 -14.7 68 68 N 5 7 30.32 1027 10 16.0934 0 0
10:55 am 10:55 Sunny 15 -9.3 5 -15 64 64 N 3 6 30.31 1026 10 16.0934 0 0
11:15 am 11:15 Sunny 17 -8.5 5 -14.9 60 60 NNW 5 7 30.29 1026 10 16.0934 0 0
11:35 am 11:35 Sunny 18 -8 6 -14.7 59 59 NNW 7 11 30.27 1025 10 16.0934 0 0
11:55 am 11:55 Sunny 18 -7.7 5 -14.9 57 57 Calm 30.26 1025 10 16.0934 0 0
12:15 pm 12:15 Sunny 20 -6.6 6 -14.3 55 55 Calm 30.23 1024 10 16.0934 0 0
12:35 pm 12:35 Sunny 20 -6.5 6 -14.5 53 53 Calm 30.21 1023 10 16.0934 0 0
12:55 pm 12:55 Sunny 21 -6.2 7 -14.1 54 54 NE 3 6 30.2 1023 10 16.0934 0 0
1:15 pm 13:15 Sunny 22 -5.7 5 -14.8 49 49 NE 3 6 30.17 1022 10 16.0934 0 0
1:35 pm 13:35 Sunny 23 -5 5 -15.2 45 45 E 6 9 30.15 1021 10 16.0934 0 0
1:55 pm 13:55 Sunny 24 -4.5 6 -14.6 46 46 ESE 5 7 30.14 1021 10 16.0934 0 0
2:15 pm 14:15 Sunny 24 -4.3 6 -14.7 45 45 Calm 30.14 1021 10 16.0934 0 0
2:35 pm 14:35 Sunny 25 -4 4 -15.3 41 41 ESE 5 7 30.12 1020 10 16.0934 0 0
2:55 pm 14:55 Sunny 25 -3.8 4 -15.3 41 41 SE 6 9 30.11 1020 10 16.0934 0 0
3:15 pm 15:15 Sunny 26 -3.5 5 -15.1 41 41 ESE 9 15 30.09 1019 10 16.0934 0 0
3:35 pm 15:35 Sunny 26 -3.2 5 -15.2 39 39 SE 7 11 30.1 1019 10 16.0934 0 0
3:55 pm 15:55 Sunny 27 -3 5 -15.2 39 39 SE 9 15 30.08 1019 10 16.0934 0 0
4:15 pm 16:15 Sunny 26 -3.3 4 -15.3 39 39 SE 9 15 30.09 1019 10 16.0934 0 0
4:35 pm 16:35 Sunny 26 -3.5 6 -14.5 43 43 SE 9 15 30.08 1019 10 16.0934 0 0
4:55 pm 16:55 Sunny 25 -4 6 -14.2 45 45 SE 7 11 30.09 1019 10 16.0934 0 0
5:15 pm 17:15 Sunny 24 -4.5 8 -13.4 50 50 SE 6 9 30.1 1019 10 16.0934 0 0
5:35 pm 17:35 Clear 22 -5.5 9 -12.8 57 57 SE 6 9 30.11 1020 10 16.0934 0 0
5:55 pm 17:55 Clear 21 -6.1 10 -12.2 62 62 SE 7 11 30.1 1019 10 16.0934 0 0
6:15 pm 18:15 Clear 20 -6.5 10 -12.3 64 64 SE 5 7 30.12 1020 10 16.0934 0 0
6:35 pm 18:35 Clear 20 -6.7 10 -12 66 66 SE 5 7 30.13 1020 10 16.0934 0 0
6:55 pm 18:55 Clear 20 -6.8 10 -12.5 64 64 SSE 6 9 30.13 1020 10 16.0934 0 0
7:15 pm 19:15 Clear 20 -6.8 10 -12.3 65 65 SSE 7 11 30.13 1020 10 16.0934 0 0
7:35 pm 19:35 Clear 20 -6.5 10 -12.2 64 64 SSE 6 9 30.13 1020 10 16.0934 0 0
7:55 pm 19:55 Clear 20 -6.6 10 -12.2 65 65 SSE 7 11 30.13 1020 10 16.0934 0 0
8:15 pm 20:15 Clear 19 -7 10 -12.1 67 67 S 5 7 30.14 1021 10 16.0934 0 0
8:35 pm 20:35 Clear 19 -7.2 10 -12.1 68 68 S 7 11 30.15 1021 10 16.0934 0 0
8:55 pm 20:55 Clear 19 -7.2 10 -12.3 67 67 S 6 9 30.15 1021 10 16.0934 0 0
9:15 pm 21:15 Clear 17 -8.3 10 -12 75 75 S 7 11 30.15 1021 10 16.0934 0 0
9:35 pm 21:35 Clear 18 -8 10 -12 73 73 S 5 7 30.15 1021 10 16.0934 0 0
9:55 pm 21:55 Clear 17 -8.2 10 -12 74 74 SSE 7 11 30.16 1021 10 16.0934 0 0
10:15 pm 22:15 Clear 18 -7.6 11 -11.6 73 73 S 7 11 30.15 1021 10 16.0934 0 0
10:35 pm 22:35 Clear 18 -7.7 11 -11.6 74 74 SSE 6 9 30.15 1021 10 16.0934 0 0
10:55 pm 22:55 Clear 18 -8 12 -11.3 77 77 SSE 5 7 30.15 1021 10 16.0934 0 0
11:15 pm 23:15 Clear 19 -7.5 11 -11.5 73 73 SSE 7 11 30.15 1021 10 16.0934 0 0
11:35 pm 23:35 Clear 19 -7.1 11 -11.5 71 71 S 8 13 30.14 1021 10 16.0934 0 0
11:55 pm 23:55 Clear 20 -6.7 12 -11.2 71 71 SSE 7 11 30.13 1020 10 16.0934 0 0

Powered by AerisWeather